Location: Mahannah Oil Field
(37.4664°N, 96.6003°W)
Time: 08:36:50
(UTC+00:00)

Courier 1B - Pass Details

Date: 25 January 2021
Orbit: 962 x 1209 km, 28.3° (Epoch: 02 March)

Event Time Altitude Azimuth Distance (km) Brightness Sun altitude
Rises 03:17:02 0° 203° (SSW) 3,850 10.8 -42.5°
Enters shadow 03:17:46 - 200° (SSW) 3,661 10.6 -42.7°
Reaches altitude 10° 03:21:51 10° 175° (S) 2,833 - -43.4°
Maximum altitude 03:24:22 12° 154° (SSE) 2,643 - -43.9°
Drops below altitude 10° 03:26:51 10° 131° (SE) 2,776 - -44.4°
Sets 03:31:25 0° 103° (ESE) 3,683 - -45.3°
